Showing default

COSMOS 1461, 14064

Orbit data source: Space-Track

COSMOS 1461, 14064 is a payload satellite owned by VMF (CIS) in LEO that was launched on Sat, 07 May 1983 UTC via a TSIKLON-2 launch vehicle from the Tyuratam Missile And Space Complex (TTMTR). Payload-class satellites include a variety of spacecraft equipped with specific instruments for various scientific and technological missions. These include communications satellites like Starlink; space stations such as the ISS; scientific satellites like the Hubble; Earth observation satellites from companies like Planet Labs, Umbra, and HawkEye 360; GPS; miniature CubeSats for education and research; and military/defense satellites.

Loading next visibility...
Identifier
14064, 1983-044A
Orbit
LEO
Country
Flag of CISCIS
Related business
Manufacturer
TSSKB/KOMET
Mission
Spacecraft
Bus & Motor
US-P, Unknown motor
Mass
3,300 kg wet, ~3,000 kg dry
Launch date (UTC)
1983-05-07 (42 years ago)
Launch vehicle
TSIKLON-2
Launch site
Tyuratam Missile And Space Complex (TTMTR)
Object type
Payload
Rocket body
Debris
Shape & HBR
Unknown
Radar Cross Section
Large (>1 m²)

Expand to show TLE details & history
Last TLE update: 1 day ago

TLE from 1 day ago
0 COSMOS 1461
1 14064U 83044A   25306.46403381  .00020575  00000-0  69477-3 0  9994
2 14064  64.9901  77.9105 0069592 265.8207  93.4971 15.28379825182369
Epoch: 2025-11-02T11:08Z
TLE epoch observation values (Epoch: 2025-11-02T11:08:12.521Z)
Latitude
0.00007°
Longitude
-131.12103°
Altitude
485.957 km
Speed
7.621 km/s
True Right ascension
05h 11m 38s
True Declination
0° 00' 00"
Sunlit
Object was in full shadow at epoch
Visualization orbit readout
Latitude
Unknown
Longitude
Unknown
Altitude
Unknown
Speed
Unknown
Apparent Right ascension
Unknown
Apparent Declination
Unknown
Sunlit
N/A
Visualization observer readout
Local Sidereal Time
17:35:48
Azimuth
Unknown
Elevation
Unknown
Doppler factor
Unknown
Orbital elements
Apogee altitude
526.892 km
Perigee altitude
431.449 km
Semi-major axis
6,857.307 km
Eccentricity
0.00696
Inclination
64.9901°
RAAN
77.9105°
Arg. of periapsis
265.8207°
True anomaly
94.29263°
Mean anomaly
93.4971°
Eccentric anomaly
93.89491°
Mean motion
3.82219 °/min
Orbital period
94.19 mins
BSTAR
0.00069477
Loading maneuver chart data...
Computing Atmospheric mass density...

Documentation

Showing up to 5 results
|